When you browse on this site, cookies collect data to enhance your experience and personalize the content and advertising you see.
Visit our Privacy Policy to learn more. By continuing to use the site, you agree to this use of cookies and data.
  • In Portugal
  • List of Countries
  • For 7 days
  • Water Temperature
  • Weather Map
  • Weather Widgets
  • user-avatar
    Login

    Hourly Weather Bregenz

    Today, 25 August, Sunday

    Time Temperature Precipitation Wind Pressure Humidity
    00:00 +12°C° 0 mm 1 mps 650 mmHg 89%
    01:00 +11°C° 0 mm 1 mps 650 mmHg 89%
    02:00 +11°C° 0 mm 1 mps 649 mmHg 88%
    03:00 +11°C° 0 mm 1 mps 649 mmHg 88%
    04:00 +10°C° 0 mm 1 mps 649 mmHg 88%
    05:00 +11°C° 0 mm 1 mps 650 mmHg 87%
    06:00 +12°C° 0 mm 1 mps 650 mmHg 86%
    07:00 +13°C° 0 mm 1 mps 650 mmHg 84%
    08:00 +15°C° 0 mm 1 mps 651 mmHg 76%
    09:00 +18°C° 0 mm 1 mps 652 mmHg 68%
    10:00 +21°C° 0 mm 1 mps 652 mmHg 60%
    11:00 +21°C° 0 mm 1 mps 652 mmHg 57%
    12:00 +22°C° 0 mm 1 mps 652 mmHg 54%
    13:00 +21°C° 0 mm 2 mps 652 mmHg 52%
    14:00 +21°C° 0 mm 2 mps 652 mmHg 52%
    15:00 +22°C° 0 mm 1 mps 652 mmHg 52%
    16:00 +22°C° 0 mm 1 mps 652 mmHg 52%
    17:00 +20°C° 0 mm 1 mps 651 mmHg 60%
    18:00 +18°C° 0 mm 1 mps 651 mmHg 68%
    19:00 +14°C° 0 mm 0 mps 650 mmHg 76%
    20:00 +14°C° 0 mm 1 mps 650 mmHg 77%
    21:00 +13°C° 0 mm 1 mps 650 mmHg 78%
    22:00 +12°C° 0 mm 1 mps 650 mmHg 79%
    23:00 +12°C° 0 mm 1 mps 650 mmHg 79%

    Tomorrow, 26 August, Monday

    Time Temperature Precipitation Wind Pressure Humidity
    00:00 +12°C° 0 mm 1 mps 650 mmHg 80%
    01:00 +11°C° 0 mm 1 mps 649 mmHg 80%
    02:00 +11°C° 0 mm 1 mps 649 mmHg 80%
    03:00 +11°C° 0 mm 1 mps 649 mmHg 81%
    04:00 +10°C° 0 mm 1 mps 649 mmHg 81%
    05:00 +11°C° 0 mm 1 mps 649 mmHg 80%
    06:00 +12°C° 0 mm 1 mps 649 mmHg 79%
    07:00 +13°C° 0 mm 1 mps 650 mmHg 78%
    08:00 +15°C° 0 mm 1 mps 650 mmHg 71%
    09:00 +18°C° 0 mm 1 mps 651 mmHg 63%
    10:00 +21°C° 0 mm 1 mps 652 mmHg 55%
    11:00 +21°C° 0 mm 1 mps 652 mmHg 53%
    12:00 +22°C° 0 mm 1 mps 652 mmHg 50%
    13:00 +23°C° 0 mm 1 mps 652 mmHg 48%
    14:00 +23°C° 0 mm 1 mps 651 mmHg 49%
    15:00 +23°C° 0 mm 1 mps 651 mmHg 50%
    16:00 +22°C° 0 mm 1 mps 651 mmHg 52%
    17:00 +20°C° 0 mm 1 mps 650 mmHg 61%
    18:00 +18°C° 0 mm 1 mps 650 mmHg 69%
    19:00 +14°C° 0 mm 0 mps 649 mmHg 78%
    20:00 +14°C° 0 mm 1 mps 649 mmHg 78%
    21:00 +14°C° 0 mm 1 mps 649 mmHg 78%
    22:00 +13°C° 0 mm 1 mps 649 mmHg 78%
    23:00 +13°C° 0 mm 1 mps 649 mmHg 79%

    Day after tomorrow, 27 August, Tuesday

    Time Temperature Precipitation Wind Pressure Humidity
    00:00 +12°C° 0 mm 1 mps 649 mmHg 80%
    01:00 +12°C° 0 mm 1 mps 649 mmHg 81%
    02:00 +12°C° 0 mm 1 mps 649 mmHg 81%
    03:00 +12°C° 0 mm 1 mps 649 mmHg 81%
    04:00 +12°C° 0 mm 1 mps 649 mmHg 81%
    05:00 +12°C° 0 mm 1 mps 649 mmHg 80%
    06:00 +13°C° 0 mm 1 mps 649 mmHg 79%
    07:00 +14°C° 0 mm 1 mps 650 mmHg 78%
    08:00 +16°C° 0 mm 1 mps 650 mmHg 70%
    09:00 +20°C° 0 mm 1 mps 651 mmHg 62%
    10:00 +20°C° 0 mm 0 mps 652 mmHg 55%
    11:00 +23°C° 0 mm 1 mps 652 mmHg 52%
    12:00 +24°C° 0 mm 1 mps 652 mmHg 49%
    13:00 +24°C° 0 mm 1 mps 652 mmHg 47%
    14:00 +24°C° 0 mm 1 mps 652 mmHg 49%
    15:00 +24°C° 0 mm 1 mps 651 mmHg 50%
    16:00 +23°C° 0 mm 1 mps 651 mmHg 52%
    17:00 +21°C° 0 mm 1 mps 651 mmHg 60%
    18:00 +19°C° 0 mm 1 mps 650 mmHg 68%
    19:00 +15°C° 0 mm 0 mps 650 mmHg 76%
    20:00 +16°C° 0 mm 1 mps 650 mmHg 76%
    21:00 +15°C° 0 mm 1 mps 650 mmHg 75%
    22:00 +14°C° 0 mm 1 mps 650 mmHg 75%
    23:00 +14°C° 0 mm 1 mps 649 mmHg 75%

    28 August, Wednesday

    Time Temperature Precipitation Wind Pressure Humidity
    00:00 +14°C° 0 mm 1 mps 649 mmHg 76%
    01:00 +14°C° 0 mm 1 mps 649 mmHg 77%
    02:00 +13°C° 0 mm 1 mps 649 mmHg 78%
    03:00 +13°C° 0 mm 1 mps 649 mmHg 78%
    04:00 +13°C° 0 mm 1 mps 648 mmHg 79%
    05:00 +14°C° 0 mm 1 mps 649 mmHg 79%
    06:00 +14°C° 0 mm 1 mps 649 mmHg 79%
    07:00 +15°C° 0 mm 1 mps 649 mmHg 80%
    08:00 +18°C° 0 mm 1 mps 649 mmHg 73%
    09:00 +20°C° 0 mm 1 mps 650 mmHg 67%
    10:00 +22°C° 0 mm 1 mps 650 mmHg 60%
    11:00 +22°C° 0.1 mm 1 mps 650 mmHg 59%
    12:00 +23°C° 0.1 mm 1 mps 650 mmHg 57%
    13:00 +23°C° 0.1 mm 1 mps 650 mmHg 56%
    14:00 +22°C° 0.5 mm 1 mps 650 mmHg 63%
    15:00 +22°C° 0.5 mm 1 mps 650 mmHg 69%
    16:00 +21°C° 0.5 mm 1 mps 649 mmHg 76%
    17:00 +20°C° 0.5 mm 1 mps 649 mmHg 79%
    18:00 +16°C° 0.5 mm 0 mps 648 mmHg 81%
    19:00 +15°C° 0.5 mm 0 mps 648 mmHg 84%
    20:00 +15°C° 0.1 mm 1 mps 648 mmHg 85%
    21:00 +14°C° 0.1 mm 1 mps 648 mmHg 86%
    22:00 +13°C° 0.1 mm 1 mps 648 mmHg 87%
    23:00 +13°C° 0 mm 2 mps 648 mmHg 87%

    29 August, Thursday

    Time Temperature Precipitation Wind Pressure Humidity
    00:00 +13°C° 0 mm 2 mps 647 mmHg 86%
    01:00 +13°C° 0 mm 2 mps 647 mmHg 86%
    02:00 +12°C° 0 mm 1 mps 647 mmHg 86%
    03:00 +12°C° 0 mm 1 mps 647 mmHg 85%
    04:00 +12°C° 0 mm 1 mps 647 mmHg 85%
    05:00 +12°C° 0.2 mm 1 mps 647 mmHg 85%
    06:00 +13°C° 0.2 mm 1 mps 648 mmHg 86%
    07:00 +13°C° 0.2 mm 1 mps 648 mmHg 86%
    08:00 +15°C° 0.2 mm 1 mps 649 mmHg 81%
    09:00 +18°C° 0.2 mm 1 mps 649 mmHg 75%
    10:00 +20°C° 0.2 mm 1 mps 650 mmHg 70%
    11:00 +20°C° 0.9 mm 1 mps 650 mmHg 72%
    12:00 +20°C° 0.9 mm 1 mps 650 mmHg 74%
    13:00 +20°C° 0.9 mm 1 mps 650 mmHg 76%
    14:00 +20°C° 0.9 mm 1 mps 650 mmHg 78%
    15:00 +19°C° 0.9 mm 1 mps 650 mmHg 80%
    16:00 +19°C° 0.9 mm 1 mps 650 mmHg 81%
    17:00 +18°C° 0.8 mm 1 mps 650 mmHg 84%
    18:00 +16°C° 0.8 mm 1 mps 650 mmHg 86%
    19:00 +14°C° 0.8 mm 0 mps 649 mmHg 89%
    20:00 +14°C° 0.6 mm 1 mps 650 mmHg 90%
    21:00 +13°C° 0.6 mm 1 mps 650 mmHg 91%
    22:00 +12°C° 0.6 mm 1 mps 650 mmHg 92%
    23:00 +12°C° 0.1 mm 1 mps 650 mmHg 93%

    30 August, Friday

    Time Temperature Precipitation Wind Pressure Humidity
    00:00 +11°C° 0.1 mm 0 mps 650 mmHg 93%
    01:00 +10°C° 0.1 mm 0 mps 649 mmHg 94%
    02:00 +10°C° 0 mm 0 mps 649 mmHg 94%
    03:00 +10°C° 0 mm 0 mps 649 mmHg 95%
    04:00 +9°C° 0 mm 0 mps 649 mmHg 95%
    05:00 +10°C° 0 mm 0 mps 650 mmHg 95%
    06:00 +11°C° 0 mm 0 mps 650 mmHg 94%
    07:00 +11°C° 0 mm 0 mps 650 mmHg 94%
    08:00 +12°C° 0 mm 0 mps 651 mmHg 91%
    09:00 +14°C° 0 mm 0 mps 651 mmHg 88%
    10:00 +16°C° 0 mm 1 mps 651 mmHg 85%
    11:00 +18°C° 0 mm 1 mps 651 mmHg 80%
    12:00 +18°C° 0 mm 1 mps 651 mmHg 76%
    13:00 +19°C° 0 mm 1 mps 651 mmHg 71%
    14:00 +19°C° 0 mm 1 mps 651 mmHg 72%
    15:00 +19°C° 0 mm 1 mps 651 mmHg 73%
    16:00 +19°C° 0 mm 1 mps 651 mmHg 74%
    17:00 +18°C° 0.1 mm 1 mps 650 mmHg 80%
    18:00 +15°C° 0.1 mm 1 mps 650 mmHg 86%
    19:00 +14°C° 0.1 mm 1 mps 650 mmHg 93%
    20:00 +14°C° 0 mm 1 mps 650 mmHg 93%
    21:00 +13°C° 0 mm 1 mps 650 mmHg 94%
    22:00 +12°C° 0 mm 1 mps 650 mmHg 95%
    23:00 +12°C° 0 mm 1 mps 649 mmHg 95%
    Show more